Wetbulb
54.47 56.18 56.79 57.13 58.51 59.17 59.56 59.42 58.00 57.52 58.98 59.41 60.55 59.91 60.08 60.86 60.44 57.37 54.50 59.80 61.43 64.30 62.69 58.75 57.49 56.16 53.36 50.74 50.64 50.14 45.08 42.69 44.26 45.36 47.07 49.61 50.41 52.68 55.14 53.97 55.55 56.87 56.52 58.70 62.97
54.43 54.42 56.14 56.63 57.33 58.75 59.16 59.29 59.13 58.54 59.35 58.64 58.89 59.12 59.19 60.09 56.78 53.55 60.47 64.45 64.32 63.23 57.73 55.40 53.77 54.13 49.36 48.51 48.64 45.02 43.58 44.99 47.52 48.11 47.56 49.11 50.87 52.37 53.48 54.01 55.11 56.81 59.24 60.94 62.12
54.66 54.28 54.56 56.15 56.64 57.93 58.80 59.27 58.53 59.03 59.16 58.23 57.42 58.83 59.09 58.51 51.28 51.66 62.09 63.00 64.01 61.39 58.14 57.07 55.73 51.87 47.93 47.33 45.87 46.06 43.18 46.06 48.42 49.62 49.79 49.75 50.13 52.50 52.26 51.31 54.10 55.08 57.38 60.14 60.65
54.83 54.85 54.04 54.92 56.37 56.85 58.09 58.86 59.05 59.25 59.36 58.71 57.36 57.40 57.09 55.93 44.19 54.05 60.99 62.70 63.16 58.92 56.87 54.71 51.68 48.94 46.92 43.41 46.12 43.64 46.12 47.36 49.39 49.82 49.26 49.13 50.77 50.84 52.07 53.14 53.20 56.89 59.76 60.38 60.24
54.24 54.49 54.55 54.24 55.05 55.92 57.51 58.46 58.96 59.32 59.65 59.84 58.38 56.98 54.64 49.48 48.30 55.81 60.28 61.44 58.18 57.08 54.79 52.35 49.31 47.69 45.59 45.44 45.41 43.87 44.14 48.07 48.45 48.90 48.35 49.51 48.28 50.24 51.49 51.47 56.23 58.52 59.40 59.93 60.46
53.38 54.40 54.80 54.85 54.34 55.10 56.55 57.81 58.27 59.03 59.35 59.72 58.90 58.03 51.53 41.50 52.56 56.81 57.06 58.29 56.72 54.31 53.70 53.87 50.66 50.19 46.40 45.46 43.98 45.07 45.25 46.34 47.93 47.40 48.25 47.62 47.06 48.78 50.46 52.89 56.31 57.96 58.54 58.91 59.52
52.99 54.05 54.58 54.91 53.74 54.58 55.87 57.41 57.58 58.31 59.10 58.79 58.02 53.64 47.47 43.48 52.74 54.02 55.75 55.48 57.04 54.72 52.71 54.97 54.01 50.14 47.98 44.33 46.46 45.21 42.00 43.55 45.51 46.69 46.15 47.54 45.57 46.22 48.55 51.95 54.70 56.15 57.19 58.03 58.67
52.87 53.79 54.44 54.87 53.72 54.28 55.49 57.02 57.32 57.47 58.54 58.88 57.81 48.34 40.73 49.20 50.12 52.33 54.06 54.97 57.63 57.39 54.84 55.49 54.65 49.91 46.81 46.13 43.37 39.98 40.26 36.76 41.61 45.66 45.61 46.54 42.26 46.45 48.29 51.09 51.68 54.06 54.77 56.44 57.84
53.33 54.01 54.26 54.58 54.12 54.24 55.13 56.63 57.16 56.83 58.16 58.12 49.95 44.25 38.62 53.04 46.83 50.62 52.47 52.34 55.23 55.67 55.76 54.65 51.35 46.40 45.87 40.63 37.74 37.13 32.09 34.17 38.61 44.24 44.09 43.45 41.47 43.79 46.07 48.14 49.90 51.43 53.04 54.12 54.93
53.25 53.97 54.29 54.30 53.73 54.12 54.87 56.27 56.53 55.82 56.32 52.23 50.80 41.94 41.82 41.72 48.56 50.26 51.49 54.55 52.71 52.08 51.28 48.77 44.70 41.18 38.57 36.89 30.76 33.49 33.21 34.10 34.84 37.84 41.20 39.76 41.04 42.91 42.74 43.54 45.99 46.72 48.79 50.07 50.92
53.29 53.70 53.82 53.61 52.80 53.22 52.50 52.38 48.25 47.29 48.51 43.88 43.43 41.70 42.68 46.81 49.98 48.17 51.71 52.55 50.73 48.31 41.96 44.80 39.85 35.81 38.47 39.32 37.77 37.05 34.43 32.86 34.34 37.18 36.76 38.02 38.89 41.91 42.55 42.45 42.06 42.70 43.02 44.42 46.64
52.60 53.11 53.41 52.65 52.09 53.19 50.26 47.64 48.14 49.46 42.40 48.24 46.04 45.57 46.40 47.25 43.01 46.12 52.10 45.70 46.81 40.52 43.52 40.87 34.43 39.22 42.19 40.02 37.92 36.10 33.40 32.11 34.39 37.35 35.78 34.74 35.29 37.41 38.47 40.73 42.98 43.88 43.04 43.11 43.73
51.98 52.73 53.13 52.69 52.99 49.61 47.19 48.00 51.69 51.36 40.01 42.10 45.65 44.35 44.99 45.75 41.69 43.07 48.38 45.91 42.77 40.66 40.28 35.77 35.50 41.62 41.76 37.98 35.68 32.90 32.16 31.33 32.82 34.22 34.61 32.05 30.83 33.84 37.70 38.82 40.43 41.90 44.19 45.05 45.21
51.58 52.50 52.69 53.31 46.19 46.92 46.95 50.19 51.49 52.13 33.80 35.81 41.81 44.14 46.17 45.74 40.47 46.17 49.26 45.24 41.29 37.13 38.09 36.50 38.84 39.05 37.50 36.60 37.41 32.89 35.52 35.24 34.26 32.44 27.93 31.74 23.13 29.90 33.46 34.49 36.27 38.96 40.89 42.49 43.65
51.56 52.41 52.35 48.80 44.39 45.39 48.23 50.07 51.05 46.93 22.73 38.46 41.14 50.29 46.93 42.31 41.46 41.45 48.44 44.95 37.86 38.30 36.95 31.23 35.58 36.60 35.31 35.97 39.69 35.36 36.87 35.83 34.59 30.77 30.18 28.96 27.13 28.28 31.65 33.05 35.87 37.56 38.26 39.52 40.58
51.82 52.22 51.23 46.15 45.72 47.85 48.44 48.11 47.02 31.40 21.73 35.12 41.74 41.03 40.35 41.59 40.42 43.92 44.00 44.58 43.49 39.26 37.27 33.91 38.60 37.84 36.76 38.47 39.72 38.52 35.77 34.49 32.62 30.74 21.93 26.63 26.20 24.46 29.87 33.18 34.61 36.25 37.40 38.43 38.58
51.88 50.96 46.76 45.42 42.18 48.75 45.18 43.87 28.09 23.18 32.39 32.06 35.24 39.54 39.05 37.65 38.93 39.15 38.37 37.18 34.40 30.65 31.37 34.15 35.00 37.81 39.05 35.84 38.08 35.44 30.34 23.50 22.24 21.66 17.54 25.75 25.19 30.17 32.71 35.27 35.57 36.71 36.30 37.81 39.26
50.84 49.31 48.57 46.61 48.20 44.74 39.48 34.72 16.37 26.09 28.25 34.84 35.33 38.91 36.23 38.06 37.58 36.90 37.55 34.91 36.32 32.78 31.43 28.92 26.10 35.96 39.06 36.21 34.66 34.03 29.99 24.38 16.51 18.62 19.62 27.60 23.53 27.73 34.20 36.25 37.44 37.54 37.77 38.17 38.45
49.26 43.40 45.63 45.89 46.67 44.38 32.30 22.27 19.47 25.28 31.51 31.36 33.69 33.37 32.90 36.98 36.99 36.61 36.42 36.12 36.34 35.62 30.36 29.26 28.86 35.99 37.94 38.58 38.86 34.69 30.37 31.87 24.59 16.27 18.43 23.07 26.70 31.36 33.88 35.11 35.30 36.10 36.71 38.21 38.97
42.03 43.05 41.75 45.28 43.13 37.52 25.99 21.67 26.90 33.41 34.09 32.81 26.63 30.38 27.24 29.52 33.95 34.69 34.21 36.34 36.66 37.46 36.48 33.25 27.49 33.74 36.86 38.51 37.61 35.34 36.58 27.59 22.62 11.75 12.02 20.89 23.24 25.52 30.66 33.10 35.10 35.01 35.72 37.48 38.60
39.26 35.26 41.91 43.55 38.08 28.58 19.52 23.29 28.89 34.30 34.55 30.66 26.27 27.65 28.82 28.20 30.39 30.03 32.99 33.28 34.49 37.15 38.91 35.34 31.17 30.73 35.49 34.24 32.65 33.06 31.03 31.32 29.69 24.84 17.96 15.21 22.34 29.50 31.81 32.92 33.46 34.26 35.45 36.24 37.70
35.00 30.32 41.97 38.14 24.56 23.81 24.12 25.99 32.26 31.19 32.98 32.88 32.56 29.69 28.43 28.83 27.30 28.86 28.49 31.71 35.83 35.61 34.94 37.89 33.07 27.40 31.59 33.74 35.68 36.14 33.94 33.23 24.87 21.60 24.38 23.57 25.41 33.89 33.68 33.92 34.19 34.89 36.52 36.80 37.13
33.10 33.81 38.84 33.80 17.03 23.24 26.11 23.71 28.73 28.84 29.60 29.95 29.64 32.45 32.59 27.37 25.72 25.46 27.08 35.23 36.36 34.52 31.29 34.17 31.79 26.32 28.14 30.97 32.20 32.51 33.49 34.91 32.40 29.21 25.06 22.68 26.84 33.85 33.53 34.18 34.82 35.19 35.51 36.40 37.22
32.25 23.92 27.96 27.24 20.73 20.29 15.93 15.45 20.09 30.04 29.99 30.11 30.21 31.16 31.46 27.97 31.02 26.62 28.74 33.61 36.69 35.01 36.55 35.63 32.34 30.44 23.53 25.79 30.84 30.31 32.15 34.81 34.48 29.81 29.43 28.45 31.28 32.26 32.01 33.18 34.31 35.09 35.41 35.80 37.40
28.91 24.98 22.09 18.45 16.93 16.67 20.85 22.26 20.07 18.67 29.63 30.10 28.21 26.73 26.90 20.81 24.63 25.80 31.17 31.38 34.94 36.31 36.15 35.17 28.33 31.81 31.97 31.66 31.31 29.89 30.61 32.38 32.68 33.52 29.35 31.92 31.32 35.57 36.76 37.16 39.00 37.50 35.58 35.88 37.32
25.05 24.75 27.13 24.87 26.20 23.31 17.87 17.13 20.66 19.21 24.80 25.91 24.33 28.03 28.67 22.91 23.33 19.21 25.64 28.47 28.60 33.11 32.77 34.57 27.28 29.25 26.80 30.79 30.72 29.05 30.52 29.80 31.11 32.87 32.66 33.56 32.45 39.35 40.43 35.43 35.76 36.61 35.43 35.69 36.99
29.85 27.99 26.63 26.82 17.54 16.29 17.65 18.10 24.67 25.63 26.48 28.63 27.90 26.56 25.82 27.26 29.05 30.00 31.53 31.05 29.85 27.10 28.43 28.78 28.03 22.22 13.93 26.85 26.50 17.77 27.02 29.63 30.86 32.44 31.64 29.04 34.43 38.76 37.65 36.69 38.05 37.29 35.86 37.43 38.72
MSLP
1016.82 1016.81 1016.76 1016.61 1016.42 1016.22 1016.19 1016.83 1017.11 1017.35 1017.50 1017.23 1017.08 1017.13 1016.83 1016.65 1015.90 1016.04 1015.81 1016.19 1016.02 1015.80 1015.23 1014.66 1014.04 1013.87 1014.07 1014.92 1015.06 1015.37 1016.32 1017.34 1017.23 1017.34 1017.22 1017.39 1017.64 1017.96 1017.93 1018.57 1019.01 1019.09 1019.10 1019.12 1019.33
1016.68 1016.69 1016.69 1016.46 1016.45 1016.28 1016.32 1016.59 1016.74 1017.21 1017.56 1017.57 1017.29 1016.80 1016.65 1016.96 1016.59 1016.34 1016.02 1016.05 1015.70 1015.62 1015.93 1016.26 1015.11 1014.36 1014.99 1015.33 1015.62 1015.86 1016.61 1016.69 1016.43 1016.50 1016.85 1017.18 1017.23 1017.75 1018.03 1018.74 1019.01 1019.11 1019.31 1019.28 1019.65
1016.44 1016.44 1016.43 1016.37 1016.36 1016.24 1016.27 1016.38 1016.61 1016.59 1016.64 1017.13 1017.11 1016.96 1017.44 1017.35 1016.83 1015.88 1015.55 1015.70 1015.56 1015.56 1016.07 1015.95 1015.14 1014.77 1015.68 1015.96 1016.38 1016.51 1016.85 1016.60 1016.49 1016.50 1016.70 1017.10 1017.42 1017.61 1017.87 1018.68 1018.49 1018.67 1019.03 1019.49 1019.77
1016.32 1016.21 1016.30 1016.40 1016.43 1016.08 1016.09 1016.07 1015.98 1016.29 1016.50 1016.92 1017.20 1017.20 1017.30 1017.71 1016.96 1015.74 1015.59 1015.40 1015.66 1015.56 1015.81 1015.70 1015.00 1015.99 1016.72 1017.21 1016.96 1017.05 1017.03 1016.75 1016.80 1016.78 1016.99 1017.11 1017.28 1017.68 1017.65 1017.66 1017.73 1018.19 1018.75 1019.19 1019.79
1016.15 1016.13 1016.13 1016.20 1016.21 1016.31 1016.07 1015.90 1015.71 1015.78 1016.34 1016.56 1017.00 1017.31 1017.55 1018.12 1016.66 1015.75 1015.70 1015.53 1015.49 1015.43 1015.71 1016.03 1015.52 1016.05 1016.84 1017.70 1017.57 1017.09 1017.40 1017.14 1017.14 1017.08 1017.33 1017.20 1017.33 1017.54 1017.69 1017.61 1017.80 1018.12 1018.92 1019.38 1019.66
1015.93 1015.91 1015.92 1016.02 1016.08 1016.06 1015.81 1015.86 1015.73 1015.97 1016.27 1016.00 1016.48 1017.09 1017.51 1017.98 1016.40 1016.04 1016.05 1015.83 1015.86 1015.77 1015.89 1016.05 1016.14 1016.06 1017.14 1018.21 1018.18 1017.73 1017.87 1017.66 1017.31 1017.52 1017.72 1017.59 1017.71 1017.71 1017.73 1017.93 1018.24 1018.38 1018.84 1019.27 1019.60
1015.70 1015.63 1015.57 1015.69 1015.87 1015.87 1015.84 1015.91 1015.69 1015.87 1016.17 1016.21 1016.62 1017.12 1017.23 1016.70 1016.41 1016.24 1016.09 1015.97 1015.79 1015.80 1016.03 1016.27 1016.19 1016.57 1017.16 1018.10 1018.20 1018.04 1018.19 1017.98 1017.86 1017.85 1017.94 1017.70 1018.20 1018.14 1018.05 1018.23 1018.63 1018.84 1019.06 1019.36 1019.62
1015.41 1015.24 1015.21 1015.37 1015.57 1015.69 1015.62 1015.53 1015.75 1015.98 1016.09 1016.18 1016.56 1016.76 1016.81 1016.23 1016.20 1016.05 1015.84 1015.94 1015.92 1015.85 1016.08 1016.25 1016.36 1016.89 1017.26 1018.30 1018.73 1018.78 1018.97 1019.01 1018.52 1018.25 1018.15 1017.94 1018.31 1018.09 1018.33 1018.46 1018.98 1019.32 1019.57 1019.59 1019.57
1015.01 1014.85 1014.82 1015.06 1015.29 1015.45 1015.43 1015.30 1015.73 1015.89 1015.74 1016.04 1016.56 1016.80 1016.87 1016.10 1016.34 1016.11 1016.23 1016.24 1016.16 1016.25 1016.30 1016.40 1016.85 1017.93 1018.22 1018.87 1019.80 1019.96 1020.02 1019.74 1019.05 1018.88 1018.57 1018.50 1018.79 1018.53 1018.62 1018.81 1019.21 1019.51 1019.69 1019.63 1019.66
1014.68 1014.40 1014.51 1014.79 1015.10 1015.29 1015.30 1015.33 1015.79 1015.94 1016.09 1016.11 1016.78 1017.62 1016.86 1016.15 1016.11 1016.13 1016.33 1016.31 1016.40 1016.60 1016.75 1017.18 1018.26 1018.84 1019.23 1019.24 1019.67 1020.07 1020.35 1020.19 1019.77 1019.76 1019.48 1019.52 1019.28 1018.97 1019.07 1019.32 1019.54 1019.74 1019.82 1019.92 1019.73
1014.31 1014.13 1014.38 1014.73 1014.99 1015.10 1015.28 1015.72 1016.26 1016.85 1016.63 1016.45 1016.49 1016.57 1016.30 1016.36 1016.18 1016.45 1016.30 1016.42 1016.61 1017.07 1017.57 1018.18 1018.96 1019.23 1019.24 1019.21 1019.48 1019.71 1020.20 1020.52 1020.40 1020.20 1020.33 1020.22 1020.20 1019.51 1019.61 1019.76 1019.82 1019.78 1019.71 1019.75 1019.65
1014.15 1014.19 1014.44 1014.73 1014.87 1015.00 1015.33 1015.43 1015.80 1015.79 1016.47 1016.68 1016.35 1016.27 1016.11 1016.04 1016.49 1016.75 1016.58 1016.80 1017.17 1017.78 1018.44 1019.16 1018.96 1019.05 1019.02 1019.53 1019.89 1020.31 1020.80 1021.26 1021.28 1020.88 1020.88 1021.00 1020.91 1020.33 1020.08 1019.71 1019.50 1019.47 1019.40 1019.15 1019.15
1014.12 1014.28 1014.54 1014.74 1014.86 1015.24 1015.52 1015.90 1015.95 1015.73 1016.54 1016.52 1016.65 1016.41 1016.36 1016.24 1016.37 1016.73 1016.91 1017.24 1017.92 1018.39 1018.94 1019.14 1019.45 1019.32 1019.41 1019.78 1020.26 1020.68 1020.95 1021.33 1021.58 1021.69 1021.86 1021.95 1021.46 1020.67 1019.75 1019.61 1019.31 1019.02 1018.65 1018.45 1018.40
1014.08 1014.31 1014.62 1014.78 1015.40 1015.65 1016.07 1016.11 1015.81 1015.56 1016.46 1017.10 1016.75 1016.44 1016.27 1016.06 1016.74 1016.84 1017.00 1017.50 1018.27 1018.91 1019.49 1019.83 1019.79 1019.60 1019.73 1020.06 1020.35 1021.10 1021.14 1021.32 1021.85 1022.39 1023.09 1023.00 1021.93 1021.01 1020.03 1019.75 1019.33 1018.50 1018.24 1018.04 1018.05
1013.93 1014.29 1014.74 1014.96 1015.62 1015.90 1016.27 1016.19 1015.91 1016.26 1016.86 1016.93 1016.57 1016.40 1016.30 1016.75 1017.07 1017.45 1017.28 1017.35 1018.18 1018.73 1019.52 1019.70 1019.98 1019.89 1020.03 1019.89 1020.21 1020.88 1021.15 1021.76 1022.48 1023.25 1023.76 1024.07 1023.76 1020.74 1020.33 1019.70 1018.72 1017.82 1017.73 1017.44 1017.56
1013.86 1014.42 1014.89 1015.53 1015.89 1016.22 1016.11 1015.96 1016.30 1017.21 1017.12 1016.45 1016.27 1016.46 1016.89 1017.13 1017.32 1017.55 1017.51 1017.50 1018.19 1018.95 1019.43 1019.80 1019.86 1019.79 1019.77 1020.04 1020.23 1021.03 1021.82 1022.77 1023.52 1024.33 1024.85 1023.97 1023.92 1020.61 1020.12 1019.12 1018.12 1017.55 1017.38 1017.54 1017.47
1014.11 1014.73 1015.23 1015.75 1016.20 1016.19 1016.38 1016.50 1017.40 1017.72 1017.86 1017.43 1016.78 1016.70 1017.05 1017.29 1017.52 1017.51 1017.73 1018.03 1018.30 1019.28 1019.75 1020.07 1020.00 1019.70 1019.49 1020.21 1020.85 1021.00 1021.84 1023.94 1025.00 1025.65 1025.16 1024.53 1024.15 1019.53 1018.91 1018.19 1017.73 1017.28 1017.57 1017.71 1017.52
1014.60 1015.17 1015.97 1016.33 1016.38 1016.39 1016.98 1018.37 1018.87 1019.05 1018.74 1018.57 1017.98 1017.46 1017.36 1017.47 1017.71 1017.90 1018.14 1018.58 1018.63 1018.76 1019.42 1019.85 1020.30 1019.61 1019.53 1019.58 1020.24 1021.18 1021.44 1022.91 1024.25 1025.62 1025.37 1024.93 1022.91 1019.08 1018.16 1017.70 1017.40 1017.38 1017.47 1017.49 1017.48
1014.80 1016.17 1016.79 1017.39 1016.94 1016.77 1017.81 1019.24 1020.00 1020.09 1020.04 1019.40 1018.84 1018.34 1017.96 1017.94 1017.94 1018.27 1018.76 1018.81 1018.73 1018.90 1019.12 1019.48 1019.61 1019.29 1019.26 1019.09 1019.36 1020.82 1021.29 1022.17 1023.90 1025.93 1025.54 1023.79 1021.66 1019.18 1017.91 1017.39 1017.01 1017.05 1017.29 1017.28 1017.21
1015.41 1016.81 1017.83 1017.81 1017.33 1017.52 1018.68 1020.33 1020.77 1020.69 1020.33 1019.86 1019.84 1019.86 1019.29 1019.30 1018.81 1019.10 1019.54 1019.75 1019.37 1019.03 1018.95 1019.24 1019.55 1019.62 1019.38 1019.29 1019.44 1019.50 1020.36 1022.11 1023.63 1025.17 1025.02 1022.96 1021.55 1019.25 1017.93 1017.35 1017.07 1017.12 1017.34 1017.21 1017.06
1016.16 1017.76 1018.49 1018.04 1018.01 1019.35 1020.75 1021.48 1021.39 1020.88 1020.43 1020.31 1020.56 1020.54 1020.90 1020.97 1020.71 1020.50 1020.37 1021.29 1021.02 1020.17 1019.73 1019.77 1019.68 1020.34 1019.81 1019.36 1019.26 1019.90 1020.20 1021.01 1022.06 1023.18 1023.26 1022.66 1020.14 1018.04 1017.47 1017.28 1017.14 1017.10 1017.07 1016.96 1017.01
1017.36 1018.80 1018.90 1018.52 1020.08 1022.01 1022.35 1022.21 1021.76 1021.54 1021.26 1021.07 1021.05 1020.86 1021.17 1021.14 1021.41 1021.36 1021.58 1021.94 1021.76 1021.39 1020.81 1020.37 1020.27 1020.37 1019.85 1019.68 1019.60 1019.32 1019.48 1020.21 1021.16 1022.42 1022.46 1021.81 1018.69 1017.06 1016.95 1016.86 1016.79 1016.95 1016.68 1016.55 1016.57
1018.88 1019.85 1019.44 1019.40 1021.71 1023.21 1023.56 1023.19 1022.54 1022.16 1022.00 1021.57 1021.59 1021.71 1021.94 1021.92 1022.05 1022.37 1022.12 1021.96 1021.64 1022.17 1022.40 1021.98 1020.68 1020.67 1020.64 1020.38 1020.12 1019.65 1019.60 1019.67 1020.28 1020.89 1020.79 1020.66 1017.59 1016.93 1016.67 1016.69 1016.68 1016.66 1016.56 1016.65 1016.55
1019.41 1020.94 1021.23 1021.74 1023.07 1023.59 1024.41 1024.43 1023.49 1022.67 1022.41 1022.13 1022.29 1022.13 1022.25 1022.47 1022.29 1022.65 1022.57 1022.33 1022.16 1022.03 1022.07 1022.13 1021.36 1020.54 1020.00 1019.86 1019.69 1019.90 1019.50 1019.35 1019.75 1020.15 1019.17 1018.76 1016.64 1016.54 1016.62 1016.58 1016.48 1016.57 1016.60 1016.64 1016.51
1020.16 1022.46 1023.36 1023.84 1024.11 1024.53 1024.33 1024.40 1023.93 1023.37 1022.78 1022.67 1022.83 1022.64 1022.78 1023.33 1023.09 1023.04 1022.82 1022.33 1022.25 1022.24 1022.42 1021.79 1022.16 1021.59 1020.78 1020.60 1020.49 1020.19 1019.88 1019.49 1019.41 1018.68 1018.96 1017.17 1016.79 1015.35 1015.96 1016.17 1016.23 1016.11 1016.30 1016.39 1015.99
1020.95 1022.53 1023.69 1024.54 1024.77 1024.63 1024.87 1025.03 1024.26 1023.83 1023.42 1023.17 1023.07 1022.78 1022.89 1023.17 1023.17 1023.17 1022.76 1022.55 1022.37 1022.98 1022.95 1022.17 1022.50 1022.39 1022.24 1021.49 1020.85 1020.70 1019.95 1019.23 1019.09 1018.53 1018.17 1016.90 1016.21 1014.82 1014.55 1015.47 1015.61 1015.60 1015.88 1015.78 1015.42
1021.33 1021.94 1022.48 1025.07 1025.48 1025.40 1025.28 1024.92 1024.44 1023.89 1023.71 1023.46 1023.36 1023.25 1023.17 1023.07 1023.04 1023.18 1023.37 1023.51 1023.85 1024.00 1023.48 1023.12 1023.26 1023.28 1023.51 1022.77 1021.54 1020.73 1019.11 1018.92 1018.36 1017.92 1017.86 1017.12 1015.20 1014.84 1014.36 1014.99 1014.79 1015.27 1015.25 1014.64 1014.10
Wind_Speed
10 11 10 11 13 9 11 15 12 9 7 8 10 7 10 11 9 3 2 3 2 9 10 13 7 8 3 4 5 2 5 3 7 7 5 6 5 1 3 6 1 2 4 1 11
10 11 11 10 11 12 10 14 13 12 9 5 6 7 12 13 2 2 3 1 2 8 5 6 5 6 3 5 4 5 3 8 5 5 5 6 5 8 5 3 1 1 1 5 11
11 10 11 10 10 12 12 9 13 13 8 5 2 6 8 7 3 3 4 3 2 2 2 4 1 6 4 5 5 3 2 2 0 1 4 7 4 2 10 3 6 7 8 10 8
11 11 10 10 11 9 11 6 10 12 14 11 5 3 9 5 5 3 4 5 2 4 1 6 5 5 3 6 5 3 3 2 4 2 4 8 9 5 4 5 2 6 10 13 12
9 11 10 10 10 10 9 9 7 8 9 12 13 9 5 3 7 4 4 3 2 2 2 1 3 3 4 4 5 3 1 4 3 6 2 5 3 5 7 1 3 10 9 11 11
11 11 11 8 9 10 8 8 3 10 10 10 8 9 6 6 2 5 5 1 2 2 3 2 1 3 7 6 4 1 2 1 4 3 3 3 1 4 3 3 6 10 12 9 10
13 14 12 10 9 8 8 8 0 4 9 11 11 4 3 9 1 4 2 1 1 2 4 1 3 2 6 3 1 0 2 2 5 2 2 1 1 5 1 3 6 7 7 7 7
13 15 12 10 8 7 8 6 3 2 8 11 10 3 5 2 1 2 2 2 2 3 3 4 2 5 4 3 6 5 5 2 2 0 2 3 6 3 2 5 6 5 4 6 7
13 15 11 10 6 5 7 5 4 2 7 12 5 5 5 1 2 3 1 4 3 2 4 3 5 4 3 6 3 6 4 2 4 2 1 2 7 1 2 4 5 6 7 7 5
13 11 11 9 5 5 6 8 7 2 4 3 4 2 2 4 3 5 1 3 4 4 5 5 6 3 3 3 7 6 5 3 5 3 3 3 6 3 1 2 4 5 6 7 7
12 7 10 7 4 4 2 3 5 4 3 3 7 2 4 3 3 1 3 3 3 5 5 2 5 7 8 6 3 5 4 5 3 3 1 3 5 11 3 3 6 8 7 7 11
8 7 8 5 3 3 3 2 3 5 3 2 2 2 2 2 5 1 2 5 4 5 5 4 6 5 6 7 5 5 5 3 1 3 2 4 8 10 4 6 7 9 9 11 7
4 7 7 4 4 4 3 1 2 3 2 3 2 2 3 3 4 7 5 4 4 5 3 5 3 6 6 5 6 1 6 5 3 1 3 3 7 6 4 4 4 8 12 10 15
3 8 7 8 6 2 3 1 2 3 3 3 9 4 1 2 5 1 3 5 3 5 5 2 0 6 4 5 6 6 6 6 6 4 4 2 8 6 6 6 6 12 10 14 14
5 10 9 5 5 2 4 4 4 3 3 8 5 2 2 2 9 3 0 4 8 6 7 4 7 6 3 5 6 3 5 7 3 5 2 3 3 7 3 6 12 11 11 13 9
10 16 14 5 3 2 4 2 3 1 3 4 4 7 7 1 1 4 3 5 4 4 4 3 2 4 6 2 5 9 7 8 5 3 2 7 7 5 6 8 7 5 5 6 7
18 13 7 1 4 3 2 4 2 3 2 3 1 7 8 6 4 3 8 6 6 6 4 1 3 2 4 7 4 3 6 3 3 1 7 1 4 11 4 10 12 9 4 7 7
17 15 8 4 4 3 4 4 5 1 3 3 4 8 5 5 2 3 9 7 4 3 4 6 2 7 4 6 8 5 5 6 8 6 3 2 9 8 9 10 9 7 7 7 8
16 3 3 5 6 1 6 5 4 1 3 3 3 1 1 4 3 4 8 2 8 5 4 5 3 1 2 4 9 6 6 5 7 3 3 5 8 10 7 13 7 8 5 7 7
4 4 3 9 7 5 6 5 3 2 1 3 6 5 7 7 4 5 8 3 1 5 2 3 3 1 3 3 2 6 9 3 3 2 4 4 5 7 4 5 7 6 6 7 6
5 5 4 8 5 7 5 3 3 3 4 5 1 4 6 4 4 4 2 7 10 8 3 1 1 1 3 8 8 4 3 3 5 5 6 2 7 7 5 4 6 7 7 6 7
4 5 5 4 7 2 3 3 2 2 3 2 3 4 2 2 2 2 3 2 2 6 1 2 2 4 6 2 2 2 5 5 5 4 3 2 9 6 7 5 5 5 3 3 3
4 2 2 4 5 3 2 3 3 2 3 2 3 3 1 3 4 2 3 4 6 6 4 7 4 4 1 2 3 5 3 6 5 3 7 6 9 2 4 5 5 6 5 4 2
4 3 5 5 1 7 5 2 3 2 3 4 3 3 2 3 3 2 1 2 2 4 11 2 3 3 6 3 3 5 6 10 9 5 14 12 22 6 2 4 5 5 5 6 7
4 2 2 0 4 4 3 2 3 2 3 4 3 3 3 3 2 1 1 1 1 2 5 6 3 4 5 4 3 4 2 7 14 20 11 20 17 18 12 12 13 10 6 8 11
5 5 3 3 4 4 5 2 3 2 2 3 5 4 2 2 3 3 2 2 2 1 2 2 3 2 3 4 3 2 9 8 9 15 12 21 21 20 18 4 7 11 8 10 13
1 2 6 2 2 4 2 3 2 2 5 3 3 2 0 2 2 3 3 2 2 3 1 2 1 2 5 3 2 6 7 10 9 11 6 13 21 17 19 11 15 9 11 17 18
Wind_Direction
282 299 300 309 318 307 226 212 230 240 281 332 337 342 352 337 325 61 318 160 306 339 6 310 348 359 338 57 34 107 72 155 176 168 174 171 131 214 92 118 180 177 162 241 127
275 283 297 309 315 321 308 206 209 218 206 217 313 2 348 328 307 228 274 197 358 7 80 292 290 31 29 17 23 69 105 195 180 168 165 171 147 153 124 115 193 173 69 113 132
266 274 286 302 310 322 304 200 209 204 196 178 303 35 334 324 306 247 7 46 71 61 190 254 245 34 45 32 358 357 119 167 93 190 141 147 117 129 122 213 212 197 162 155 157
282 272 273 283 299 324 298 289 217 188 183 182 162 60 350 319 208 25 359 358 83 138 106 310 38 78 61 2 321 91 19 33 6 335 148 166 131 132 175 194 185 203 159 158 172
322 278 265 270 287 298 301 293 207 193 182 170 164 159 99 269 263 353 355 17 32 63 70 13 92 103 85 337 323 72 358 48 30 55 65 120 111 168 204 216 122 131 141 176 181
313 297 258 240 266 282 299 277 330 205 176 145 145 150 136 228 344 355 317 103 81 92 115 122 176 128 120 172 285 356 80 85 45 49 63 104 94 144 214 117 130 150 169 180 193
308 309 256 229 249 268 282 255 294 232 177 152 154 143 109 229 51 328 347 107 46 123 122 114 116 135 129 150 215 119 100 42 29 5 84 155 97 231 35 134 165 183 178 187 204
305 307 250 216 235 259 272 246 205 146 198 155 146 100 230 254 292 339 339 50 73 76 99 130 81 99 90 105 21 60 50 75 305 205 339 107 245 176 153 142 193 204 205 209 218
302 299 224 205 214 255 266 238 174 85 199 142 93 118 248 92 167 165 224 153 103 50 61 84 67 93 82 115 56 23 157 188 316 327 136 119 236 150 142 159 203 212 221 224 246
301 281 199 193 205 254 257 184 150 106 134 65 73 116 241 213 161 144 318 129 118 121 77 62 56 96 54 124 194 172 171 219 209 348 45 81 256 228 75 197 246 258 248 243 235
312 232 179 181 205 260 194 154 153 157 216 150 188 177 130 132 72 50 155 86 81 68 136 2 135 190 182 189 130 121 121 167 240 355 167 224 261 269 328 290 263 251 247 247 246
319 192 166 180 198 268 145 217 52 118 142 140 177 40 105 193 99 26 160 116 142 139 122 90 225 187 157 143 138 139 139 191 26 14 98 8 276 270 239 240 222 238 243 241 246
297 184 151 152 106 64 116 79 302 171 33 347 134 79 169 166 123 179 139 107 101 114 178 166 194 168 138 142 141 100 158 168 161 65 59 329 277 254 274 250 250 256 244 247 236
259 166 144 131 66 141 97 278 18 13 87 219 180 232 232 151 66 113 180 130 146 147 115 224 112 143 118 174 135 191 181 148 138 103 236 8 279 279 265 273 264 254 246 248 245
231 145 124 101 146 81 136 221 153 64 179 161 148 75 69 106 142 324 236 68 150 156 129 221 166 151 144 188 157 219 148 148 128 107 91 339 307 272 0 299 260 251 245 249 254
155 125 116 58 46 135 183 215 76 108 218 161 128 151 131 240 97 118 138 58 131 98 54 147 187 152 159 124 139 142 92 51 53 75 317 191 171 226 189 210 274 249 242 269 280
133 100 68 84 155 135 325 32 29 120 300 38 56 143 149 154 101 112 158 165 149 134 169 125 193 164 125 92 46 101 102 38 15 10 230 347 172 259 259 234 230 259 297 287 282
107 78 53 58 20 107 58 79 86 353 349 345 323 167 168 138 105 116 140 181 247 100 125 156 260 164 188 164 167 182 154 160 193 196 220 86 234 254 236 286 274 278 277 284 276
101 51 50 2 337 9 74 73 147 240 316 336 71 331 100 85 95 104 181 212 183 186 155 143 253 69 168 162 147 194 206 155 106 44 48 214 282 285 273 276 277 279 313 289 300
93 80 38 332 354 44 75 123 88 18 28 329 88 27 36 16 51 155 149 0 352 175 201 205 147 53 174 123 24 159 153 99 10 136 259 266 271 237 272 241 302 330 291 296 323
57 71 336 340 47 46 99 95 84 39 20 33 113 105 91 65 349 23 75 44 2 344 13 227 94 5 134 214 167 144 173 141 129 155 181 247 257 214 226 254 264 293 284 287 301
65 74 307 15 56 53 82 129 326 45 10 79 100 89 125 138 63 56 130 112 48 320 331 204 154 181 192 11 5 313 191 162 142 225 223 171 258 197 208 216 181 269 229 255 288
77 71 340 77 107 81 41 37 50 55 37 35 67 54 7 131 114 150 243 168 130 75 31 349 206 144 24 355 6 219 170 194 116 112 203 160 259 51 226 237 265 286 310 273 280
98 72 346 48 117 118 131 331 78 19 80 52 112 92 86 36 62 157 225 106 208 124 148 2 284 244 193 140 137 188 197 195 197 200 244 231 267 256 311 268 276 295 261 268 276
30 89 190 330 345 82 65 145 91 75 36 43 37 89 128 105 75 171 165 85 119 55 214 134 291 300 336 346 352 351 278 211 210 229 224 254 249 261 241 248 269 247 229 242 253
122 134 72 74 22 32 3 326 119 301 95 19 74 34 54 116 149 208 80 28 60 338 286 32 194 127 339 344 117 315 271 251 240 253 250 254 263 263 267 246 247 244 232 241 244
118 58 97 39 10 78 262 203 168 110 357 55 123 102 5 318 298 250 213 258 204 155 304 136 185 89 262 302 115 334 224 215 249 239 222 247 259 278 278 252 255 247 230 241 243